Location: Unspecified
(44.0704°N, 88.6889°W)
Time: 19:27:31
(UTC+02:00)

Altair - Pass Details

Date: 19 June 2019
Orbit: 1501 x 1683 km, 47.2° (Epoch: 22 August)

Event Time Altitude Azimuth Distance (km) Brightness Sun altitude
Rises 10:13:16 0° 293° (WNW) 4,864 10.0 -15.6°
Reaches altitude 10° 10:16:24 10° 291° (WNW) 3,895 9.5 -15.2°
Maximum altitude 10:26:17 66° 213° (SSW) 1,798 7.6 -14.3°
Drops below altitude 10° 10:36:17 10° 133° (SE) 3,937 9.6 -13.2°
Sets 10:39:28 0° 131° (SE) 4,918 10.1 -12.8°
